GMART EGLK-EGBJ

Flight info

Callsign GMART
Flight time 0h 38m
Altitude 2100
Route EGLK / CPT VOR / SWINDON / EGBJ
Aircraft C172/L-VGD/C

Departure

Time 2026-05-07 09:19
Airport Blackbushe Airport (EGLK)

Arrival

Time 2026-05-07 09:57
Airport Gloucestershire Airport (EGBJ)
Time Latitude Longitude Altitude Speed Heading
2026-05-07 09:07 51.32261 -0.84376 332 ft 0 kts 270°
2026-05-07 09:11 51.32274 -0.84410 332 ft 10 kts 317°
2026-05-07 09:11 51.32274 -0.84549 328 ft 16 kts 260°
2026-05-07 09:12 51.32251 -0.84751 331 ft 19 kts 257°
2026-05-07 09:12 51.32270 -0.84914 330 ft 11 kts 62°
2026-05-07 09:12 51.32288 -0.84910 330 ft 5 kts 305°
2026-05-07 09:12 51.32276 -0.84989 330 ft 7 kts 249°
2026-05-07 09:13 51.32253 -0.85093 329 ft 12 kts 250°
2026-05-07 09:13 51.32222 -0.85242 329 ft 16 kts 250°
2026-05-07 09:13 51.32194 -0.85384 329 ft 8 kts 229°
2026-05-07 09:13 51.32167 -0.85506 327 ft 10 kts 260°
2026-05-07 09:14 51.32166 -0.85512 327 ft 0 kts 257°
2026-05-07 09:16 51.32162 -0.85541 327 ft 9 kts 262°
2026-05-07 09:16 51.32198 -0.85648 325 ft 12 kts 338°
2026-05-07 09:17 51.32233 -0.85571 327 ft 7 kts 70°
2026-05-07 09:17 51.32236 -0.85552 327 ft 0 kts 72°
2026-05-07 09:18 51.32252 -0.85473 328 ft 32 kts 71°
2026-05-07 09:18 51.32380 -0.84864 393 ft 70 kts 71°
2026-05-07 09:18 51.32562 -0.84060 519 ft 87 kts 72°
2026-05-07 09:18 51.32755 -0.83121 701 ft 92 kts 76°
2026-05-07 09:19 51.32806 -0.82088 875 ft 95 kts 97°
2026-05-07 09:19 51.32565 -0.81125 1039 ft 96 kts 130°
2026-05-07 09:19 51.32016 -0.80549 1204 ft 96 kts 158°
2026-05-07 09:19 51.31355 -0.80602 1370 ft 98 kts 200°
2026-05-07 09:20 51.30871 -0.81361 1533 ft 101 kts 240°
2026-05-07 09:20 51.30633 -0.82490 1535 ft 114 kts 251°
2026-05-07 09:20 51.30423 -0.83750 1499 ft 120 kts 252°
2026-05-07 09:20 51.30216 -0.85028 1507 ft 117 kts 253°
2026-05-07 09:21 51.30011 -0.86283 1507 ft 116 kts 252°
2026-05-07 09:21 51.29807 -0.87543 1508 ft 116 kts 252°
2026-05-07 09:21 51.29820 -0.88812 1499 ft 118 kts 289°
2026-05-07 09:21 51.30265 -0.89909 1504 ft 117 kts 310°
2026-05-07 09:22 51.30811 -0.90862 1508 ft 117 kts 311°
2026-05-07 09:22 51.31346 -0.91799 1675 ft 107 kts 311°
2026-05-07 09:22 51.31828 -0.92645 1895 ft 101 kts 310°
2026-05-07 09:22 51.32289 -0.93454 2093 ft 99 kts 310°
2026-05-07 09:23 51.32786 -0.94328 2112 ft 112 kts 311°
2026-05-07 09:23 51.33328 -0.95279 2106 ft 117 kts 311°
2026-05-07 09:23 51.33888 -0.96263 2109 ft 121 kts 311°
2026-05-07 09:23 51.34452 -0.97254 2108 ft 122 kts 311°
2026-05-07 09:24 51.35033 -0.98275 2107 ft 123 kts 311°
2026-05-07 09:24 51.35611 -0.99291 2106 ft 124 kts 311°
2026-05-07 09:24 51.36188 -1.00306 2107 ft 124 kts 311°
2026-05-07 09:24 51.36769 -1.01330 2106 ft 124 kts 311°
2026-05-07 09:25 51.37347 -1.02347 2106 ft 124 kts 311°
2026-05-07 09:25 51.37923 -1.03363 2106 ft 124 kts 311°
2026-05-07 09:25 51.38506 -1.04390 2106 ft 124 kts 311°
2026-05-07 09:25 51.39086 -1.05414 2105 ft 124 kts 311°
2026-05-07 09:26 51.39664 -1.06426 2105 ft 124 kts 312°
2026-05-07 09:26 51.40252 -1.07429 2105 ft 124 kts 312°
2026-05-07 09:26 51.40848 -1.08446 2105 ft 124 kts 313°
2026-05-07 09:26 51.41432 -1.09443 2104 ft 124 kts 312°
2026-05-07 09:27 51.42020 -1.10447 2104 ft 123 kts 312°
2026-05-07 09:27 51.42607 -1.11451 2104 ft 124 kts 313°
2026-05-07 09:27 51.43787 -1.13468 2105 ft 124 kts 312°
2026-05-07 09:28 51.44380 -1.14482 2102 ft 122 kts 313°
2026-05-07 09:28 51.44956 -1.15467 2102 ft 121 kts 313°
2026-05-07 09:28 51.45531 -1.16451 2103 ft 120 kts 312°
2026-05-07 09:28 51.46106 -1.17437 2103 ft 120 kts 312°
2026-05-07 09:29 51.46678 -1.18416 2102 ft 120 kts 312°
2026-05-07 09:29 51.47246 -1.19390 2102 ft 120 kts 313°
2026-05-07 09:29 51.47819 -1.20373 2101 ft 120 kts 312°
2026-05-07 09:29 51.48386 -1.21346 2102 ft 120 kts 313°
2026-05-07 09:30 51.48809 -1.22482 2104 ft 119 kts 289°
2026-05-07 09:30 51.49048 -1.23765 2100 ft 120 kts 282°
2026-05-07 09:30 51.49238 -1.25060 2101 ft 120 kts 282°
2026-05-07 09:30 51.49427 -1.26376 2099 ft 120 kts 281°
2026-05-07 09:31 51.49612 -1.27670 2100 ft 120 kts 281°
2026-05-07 09:31 51.49799 -1.28967 2100 ft 120 kts 281°
2026-05-07 09:31 51.49987 -1.30280 2100 ft 120 kts 281°
2026-05-07 09:31 51.50172 -1.31568 2100 ft 120 kts 281°
2026-05-07 09:32 51.50359 -1.32883 2100 ft 120 kts 281°
2026-05-07 09:32 51.50545 -1.34185 2100 ft 120 kts 281°
2026-05-07 09:32 51.50732 -1.35483 2100 ft 120 kts 281°
2026-05-07 09:32 51.50919 -1.36793 2100 ft 120 kts 281°
2026-05-07 09:33 51.51103 -1.38092 2099 ft 120 kts 281°
2026-05-07 09:33 51.51288 -1.39384 2100 ft 120 kts 281°
2026-05-07 09:33 51.51473 -1.40696 2098 ft 120 kts 281°
2026-05-07 09:33 51.51659 -1.41998 2099 ft 120 kts 281°
2026-05-07 09:34 51.51842 -1.43292 2099 ft 120 kts 281°
2026-05-07 09:34 51.52028 -1.44603 2099 ft 120 kts 281°
2026-05-07 09:34 51.52214 -1.45907 2099 ft 120 kts 281°
2026-05-07 09:34 51.52399 -1.47199 2099 ft 120 kts 281°
2026-05-07 09:35 51.52586 -1.48517 2100 ft 120 kts 281°
2026-05-07 09:35 51.52770 -1.49817 2100 ft 120 kts 281°
2026-05-07 09:35 51.52955 -1.51119 2097 ft 120 kts 281°
2026-05-07 09:35 51.53140 -1.52418 2099 ft 120 kts 281°
2026-05-07 09:36 51.53325 -1.53730 2099 ft 120 kts 281°
2026-05-07 09:36 51.53509 -1.55032 2099 ft 120 kts 281°
2026-05-07 09:36 51.53696 -1.56346 2099 ft 120 kts 281°
2026-05-07 09:36 51.53879 -1.57637 2100 ft 120 kts 281°
2026-05-07 09:37 51.54065 -1.58958 2099 ft 120 kts 281°
2026-05-07 09:37 51.54248 -1.60251 2100 ft 120 kts 281°
2026-05-07 09:37 51.54431 -1.61553 2099 ft 120 kts 281°
2026-05-07 09:37 51.54615 -1.62866 2099 ft 120 kts 281°
2026-05-07 09:38 51.54799 -1.64165 2097 ft 120 kts 281°
2026-05-07 09:38 51.54985 -1.65485 2097 ft 120 kts 281°
2026-05-07 09:38 51.55169 -1.66789 2098 ft 119 kts 281°
2026-05-07 09:38 51.55350 -1.68078 2098 ft 119 kts 281°
2026-05-07 09:39 51.55533 -1.69382 2098 ft 119 kts 281°
2026-05-07 09:39 51.55715 -1.70682 2099 ft 119 kts 281°
2026-05-07 09:39 51.55900 -1.71995 2099 ft 120 kts 281°
2026-05-07 09:39 51.56083 -1.73301 2099 ft 120 kts 281°
2026-05-07 09:40 51.56265 -1.74606 2099 ft 119 kts 281°
2026-05-07 09:40 51.56445 -1.75896 2099 ft 120 kts 280°
2026-05-07 09:40 51.56676 -1.77181 2090 ft 121 kts 297°
2026-05-07 09:40 51.57241 -1.78157 2097 ft 120 kts 320°
2026-05-07 09:41 51.57925 -1.78958 2100 ft 120 kts 324°
2026-05-07 09:41 51.58599 -1.79737 2101 ft 120 kts 324°
2026-05-07 09:41 51.59280 -1.80523 2101 ft 120 kts 324°
2026-05-07 09:41 51.59957 -1.81304 2101 ft 120 kts 324°
2026-05-07 09:42 51.60636 -1.82089 2101 ft 120 kts 324°
2026-05-07 09:42 51.61323 -1.82883 2101 ft 120 kts 324°
2026-05-07 09:42 51.62002 -1.83668 2101 ft 120 kts 324°
2026-05-07 09:42 51.62675 -1.84447 2102 ft 120 kts 324°
2026-05-07 09:43 51.63359 -1.85239 2101 ft 120 kts 324°
2026-05-07 09:43 51.64033 -1.86020 2102 ft 120 kts 324°
2026-05-07 09:43 51.64718 -1.86815 2102 ft 120 kts 324°
2026-05-07 09:43 51.65394 -1.87599 2102 ft 120 kts 324°
2026-05-07 09:44 51.66077 -1.88393 2101 ft 120 kts 324°
2026-05-07 09:44 51.66753 -1.89176 2101 ft 120 kts 324°
2026-05-07 09:44 51.67427 -1.89959 2101 ft 120 kts 324°
2026-05-07 09:44 51.68106 -1.90748 2102 ft 120 kts 323°
2026-05-07 09:45 51.68790 -1.91543 2101 ft 120 kts 324°
2026-05-07 09:45 51.69468 -1.92333 2101 ft 120 kts 324°
2026-05-07 09:45 51.70142 -1.93117 2101 ft 120 kts 324°
2026-05-07 09:45 51.70818 -1.93905 2101 ft 120 kts 323°
2026-05-07 09:46 51.71503 -1.94703 2100 ft 120 kts 324°
2026-05-07 09:46 51.72177 -1.95487 2100 ft 120 kts 324°
2026-05-07 09:46 51.72855 -1.96274 2099 ft 120 kts 325°
2026-05-07 09:46 51.73559 -1.97021 2099 ft 120 kts 327°
2026-05-07 09:47 51.74258 -1.97755 2100 ft 120 kts 327°
2026-05-07 09:47 51.74960 -1.98491 2100 ft 120 kts 327°
2026-05-07 09:47 51.75659 -1.99225 2082 ft 122 kts 327°
2026-05-07 09:47 51.76391 -1.99992 1981 ft 126 kts 327°
2026-05-07 09:48 51.77110 -2.00745 1994 ft 122 kts 327°
2026-05-07 09:48 51.77817 -2.01487 1996 ft 121 kts 327°
2026-05-07 09:48 51.78514 -2.02220 1995 ft 120 kts 327°
2026-05-07 09:48 51.79215 -2.02957 1998 ft 120 kts 327°
2026-05-07 09:49 51.79922 -2.03701 2000 ft 120 kts 327°
2026-05-07 09:49 51.80620 -2.04436 1999 ft 120 kts 327°
2026-05-07 09:49 51.81336 -2.05189 1900 ft 127 kts 327°
2026-05-07 09:49 51.82083 -2.05975 1773 ft 130 kts 327°
2026-05-07 09:50 51.82854 -2.06786 1688 ft 129 kts 327°
2026-05-07 09:50 51.83587 -2.07561 1698 ft 124 kts 327°
2026-05-07 09:50 51.84305 -2.08319 1702 ft 123 kts 327°
2026-05-07 09:50 51.85022 -2.09076 1704 ft 122 kts 327°
2026-05-07 09:51 51.85732 -2.09827 1669 ft 123 kts 327°
2026-05-07 09:51 51.86471 -2.10608 1507 ft 128 kts 327°
2026-05-07 09:51 51.87221 -2.11399 1351 ft 130 kts 327°
2026-05-07 09:51 51.87985 -2.12204 1195 ft 131 kts 327°
2026-05-07 09:52 51.88728 -2.12989 1090 ft 128 kts 327°
2026-05-07 09:52 51.89459 -2.13763 1101 ft 121 kts 327°
2026-05-07 09:52 51.90152 -2.14499 1105 ft 118 kts 327°
2026-05-07 09:52 51.90819 -2.15255 1104 ft 117 kts 315°
2026-05-07 09:53 51.91119 -2.16440 1109 ft 112 kts 272°
2026-05-07 09:53 51.91129 -2.17697 1107 ft 111 kts 267°
2026-05-07 09:53 51.91116 -2.18950 1032 ft 110 kts 267°
2026-05-07 09:53 51.91102 -2.20179 913 ft 110 kts 267°
2026-05-07 09:54 51.91086 -2.21421 794 ft 107 kts 267°
2026-05-07 09:54 51.91073 -2.22557 813 ft 97 kts 266°
2026-05-07 09:54 51.90859 -2.23516 819 ft 89 kts 224°
2026-05-07 09:54 51.90321 -2.23914 823 ft 84 kts 182°
2026-05-07 09:55 51.89743 -2.23924 814 ft 84 kts 175°
2026-05-07 09:55 51.89152 -2.23820 765 ft 87 kts 155°
2026-05-07 09:55 51.88795 -2.23110 743 ft 85 kts 86°
2026-05-07 09:55 51.89180 -2.22328 659 ft 91 kts 57°
2026-05-07 09:56 51.89137 -2.21417 709 ft 73 kts 105°
2026-05-07 09:56 51.89154 -2.20613 637 ft 71 kts 84°
2026-05-07 09:56 51.89212 -2.19872 585 ft 66 kts 83°
2026-05-07 09:56 51.89260 -2.19115 409 ft 69 kts 85°
2026-05-07 09:57 51.89308 -2.18352 241 ft 66 kts 87°
2026-05-07 09:57 51.89356 -2.17630 149 ft 63 kts 87°
2026-05-07 09:57 51.89397 -2.16937 93 ft 60 kts 86°
2026-05-07 09:57 51.89433 -2.16390 84 ft 37 kts 80°
2026-05-07 09:58 51.89451 -2.16128 85 ft 5 kts 78°
2026-05-07 09:58 51.89457 -2.16042 86 ft 13 kts 86°
2026-05-07 09:58 51.89429 -2.15904 87 ft 11 kts 124°
2026-05-07 09:58 51.89395 -2.15835 90 ft 7 kts 139°
2026-05-07 09:59 51.89353 -2.15785 91 ft 7 kts 161°
2026-05-07 09:59 51.89324 -2.15785 95 ft 3 kts 237°
2026-05-07 09:59 51.89323 -2.15810 94 ft 0 kts 259°